Regional Weather Roundup
Issued by NWS Pendleton, OR

Home | Current Version | Previous Version | Text Only | Print | Product List | Glossary On
Versions: 1 2 3 4 5 6 7 8 9 10 11 12 13 14 15 16 17 18 19 20 21 22 23 24 25 26 27 28 29 30 31 32 33 34 35 36 37 38 39 40 41 42 43 44 45 46 47 48 49 50
274
ASUS46 KPDT 210325
RWRPDT
PENDLETON REGIONAL WEATHER ROUNDUP
NATIONAL WEATHER SERVICE PENDLETON OREGON
800 PM PDT WED SEP 20 2017

NOTE: FAIR INDICATES FEW OR NO CLOUDS BELOW 12,000 FEET WITH NO
SIGNIFICANT WEATHER AND/OR OBSTRUCTIONS TO VISIBILITY.

# INDICATES UNOFFICIAL STATION AND DATA

WAZ520-210410-
EAST SLOPES OF WASHINGTON CASCADES

CITY            SKY/WX      TMP DP  RH  WIND    PRES   REMARKS
#BULLFROG       N/A         47  38  71  W5      N/A
#CLE ELUM HS    N/A         46  37  71  NW5     29.71R
#CLE ELUM LAKE  N/A         43  38  82  CALM    29.75R
#EASTON DOT     N/A         43  40  89  CALM    N/A
#ELK HTS DOT    N/A         47  46  96  W5      N/A
#GLENWOOD       N/A         41  38  89  CALM    29.76R
#NELSON 3SW     N/A         43  37  79  CALM    29.96R
#NILE           N/A         43  37  79  CALM    29.04R
#TEANAWAY 4NE   N/A         46  38  73  CALM    N/A
#TROUT LAKE 1NE N/A         44  40  86  SW5     29.77R
#TROUT LAKE 1E  N/A         42  39  89  CALM    29.79R
$$

WAZ521-210410-
SIMCOE HIGHLANDS

CITY            SKY/WX      TMP DP  RH  WIND    PRES   REMARKS
#BICKLETON HS   N/A         41  39  93  W6      29.73R
#CENTERVILLE 1SWN/A         44  39  82  S3      29.74R
#GOLDENDALE 1NE N/A         46  37  71  SW1     N/A
#GOLDENDALE 4W  N/A         46  31  56  W13     29.81R WCI 40
#GOODNOE HILLS  N/A         47  44  89  NW13    N/A    WCI 41
#LYLE 6NE       N/A         46  44  93  W7      29.79R
#PITT 4SE       N/A         41  40  96  W7      29.80R
$$

WAZ026-210410-
KITTITAS VALLEY

CITY            SKY/WX      TMP DP  RH  WIND    PRES   REMARKS
ELLENSBURG AP   PTCLDY      50  37  61  NW16    29.72R
#ELLENSBURG CWU N/A         49  38  66  NW6     29.67R
#ELLENSBURG 3NE N/A         48  38  68  N7      27.81R
#ELLENSBURG 1E  N/A         49  37  63  CALM    29.76R
#KITTITAS 3S    N/A         48  38  68  NW3     29.71R
#MANASTASH RDG  N/A         46  46  100 NW5     N/A
#ROCKY CYN DOT  N/A         49  33  54  W15G24  N/A    WCI 43
#RYEGRASS DOT   N/A         45  32  60  S17     N/A    WCI 38
$$

WAZ027-210410-
YAKIMA VALLEY

CITY            SKY/WX      TMP DP  RH  WIND    PRES   REMARKS
SUNNYSIDE AP    PTCLDY      44  41  89  N3      29.73R
YAKIMA AIRPORT  CLEAR       48  42  80  W3      29.73R
YAKIMA-VAGABOND MOCLDY      53  35  50  N10     29.71R
#DONALD 2NE     N/A         50  27  41  W1      29.73R
#GRANDVIEW      N/A         49  40  71  CALM    29.74R
#MABTON         N/A         46  41  83  S2      29.72R
#MOXEE 2E       N/A         46  N/A N/A CALM    29.73R
#NACHES 2SW     N/A         49  39  68  W7      29.68S
#OUTLOOK DOT    N/A         49  42  77  CALM    29.69R
#PARKER DOT     N/A         51  42  71  SE3     29.72R
#TERRACE HTS    N/A         48  40  74  CALM    29.69R
#TOPPENISH      N/A         51  43  74  CALM    29.65R
#I82 S UMTANUM RN/A         50  33  52  NW8     N/A
#UNION GAP DOT  N/A         50  44  80  E1      29.75R
#W YAKIMA       N/A         48  39  71  CALM    29.73R
#WHITE SWAN 5E  N/A         49  41  74  CALM    29.73R
#WILEY CITY 3W  N/A         48  34  58  CALM    29.70R
#ZILLAH DOT     N/A         48  42  80  N1      N/A
$$

WAZ028-210410-
LOWER COLUMBIA BASIN...WASHINGTON

CITY            SKY/WX      TMP DP  RH  WIND    PRES   REMARKS
PASCO           PTCLDY      54  44  69  SW8     29.73R
PROSSER AWOS    N/A         46  41  83  CALM    29.76R
RICHLAND AWOS   PTCLDY      52  44  74  S6      29.73R
#BENTON CITY    N/A         48  41  77  CALM    29.63R
#CONNELL 5N     N/A         49  42  77  CALM    29.72R
#CONNELL 5NW    N/A         49  43  80  CALM    29.67R
#ELTOPIA 6NW    N/A         50  44  80  CALM    28.70R
#KAHLOTUS       N/A         50  42  74  CALM    29.73R
#KENNEWICK 3S   N/A         50  43  77  SW7     29.73R
#PATERSON       N/A         52  44  74  NW5     29.71R
#PROSSER DOT    N/A         50  42  74  CALM    29.73R
#SAGEMOOR 2W    N/A         50  45  83  CALM    29.58R
#TOUCHET 2S     N/A         53  43  69  SW5     29.72R
#WEST PASCO     N/A         50  43  77  CALM    29.69R
$$

WAZ029-210410-
FOOTHILLS OF THE BLUES...WASHINGTON

CITY            SKY/WX      TMP DP  RH  WIND    PRES   REMARKS
WALLA WALLA AP  CLOUDY      54  45  71  S10     29.75R
#CLYDE 6NW      N/A         43  39  86  CALM    29.73R
#DAYTON SCHOOL  N/A         48  41  77  CALM    29.76R
#PLEASANT VIEW 1N/A         47  41  79  CALM    29.76R
#PRESCOTT       N/A         50  46  86  CALM    29.73R
#WHITMAN COLLEGEN/A         54  43  66  S6      29.80R
#WAITSBURG 6SSE N/A         50  43  77  SE3     29.76R
#WALLA WALLA 5E N/A         52  46  80  S8      N/A
#WHITMAN MISSIONN/A         54  44  69  CALM    29.75R
$$

WAZ030-210410-
BLUE MOUNTAINS...WASHINGTON

CITY            SKY/WX      TMP DP  RH  WIND    PRES   REMARKS
#DIXIE 5SE      N/A         45  41  86  S5      29.67R
$$

ORZ009-041-WAZ024-210410-
COLUMBIA RIVER GORGE

CITY            SKY/WX      TMP DP  RH  WIND    PRES   REMARKS
THE DALLES AP   PTCLDY      52  43  71  N10     29.77S
#CELILO DOT     N/A         53  40  61  W6      N/A
#LYLE           N/A         52  45  77  N8      29.80R
#MARYHILL       N/A         48  40  74  N3      29.64
#RUFUS DOT      N/A         55  N/A N/A W16     N/A
#SMITHVILLE     N/A         52  45  77  N3      29.69R

$$

ORZ510-210410-
NORTH CENTRAL OREGON

CITY            SKY/WX      TMP DP  RH  WIND    PRES   REMARKS
#ANTELOPE       N/A         46  35  65  W5      29.64R
#CHENOWITH 1W   N/A         44  41  89  W21     N/A    WCI 36
#COW CYN RST AREN/A         45  35  68  SW8     N/A
#DUFUR          N/A         47  39  74  W1      29.74R
#DUFUR 9E       N/A         45  39  79  W7      29.83R
#GRASS VALLEY 1SN/A         45  41  86  W2      29.80R
#KENT DOT       N/A         45  29  53  W8      N/A
#MAUPIN SCHOOL  N/A         52  42  69  SW2     29.83R
#MORO SCHOOL    N/A         46  44  93  W3      29.77R
#SHANIKO 4NW    N/A         42  34  73  W9      29.75S
#TYGH VALLEY 2NEN/A         51  40  66  W7      29.76R
#WAPANITIA AIRPON/A         47  39  74  W8      29.79R
#WASCO DOT      N/A         47  40  76  W2      N/A
#WASCO 5NE      N/A         46  40  79  N7      29.75R
$$

ORZ511-210410-
CENTRAL OREGON

CITY            SKY/WX      TMP DP  RH  WIND    PRES   REMARKS
BEND AIRPORT    MOCLDY      45  36  70  CALM    29.81R
MADRAS AIRPORT  PTCLDY      46  46  100 CALM    29.81R
PRINEVILLE AP   MOCLDY      43  34  70  S6      29.80R
REDMOND AIRPORT MOCLDY      47  33  58  W12     29.78S WCI 42
#ASHWOOD SCHOOL N/A         48  36  63  CALM    29.76R
#BEND 1SW       N/A         42  35  76  W3      N/A
#BEND-AWBREY    N/A         44  36  73  CALM    29.78R
#BEND-KIM LN    N/A         44  35  70  W2      29.73R
#CULVER         N/A         45  36  70  S9      29.66R
#CULVER 8W      N/A         45  35  68  SW3     29.81S
#LAKE BILLY CHINN/A         46  N/A N/A W2      29.87R
#MADRAS 4S      N/A         46   4  17  SW3     N/A
#POWELL BUTTE   N/A         43  34  70  SW1     29.77R
#PRINEVILLE     N/A         45  37  73  CALM    29.85R
#PRINEVILLE 3N  N/A         42  37  82  E2      29.76R
#WARM SPRINGS   N/A         51  38  61  CALM    29.64R

$$


ORZ509-210410-
EAST SLOPES OF OREGON CASCADES

CITY            SKY/WX      TMP DP  RH  WIND    PRES   REMARKS
SISTERS AWOS    N/A         43  36  76  W10     N/A
#CAMP SHERMAN   N/A         40  35  82  CALM    29.89R
#LA PINE 4NW    N/A         39  32  76  CALM    29.83R
#LAVA BUTTE DOT N/A         38  30  73  SE1     N/A
#SISTERS ODOT   N/A         43  35  73  SW8     N/A
#SISTERS 3N     N/A         41  33  73  CALM    29.82S
#SUNRIVER       N/A         39  34  82  CALM    29.81R
#TUMALO 3W      N/A         43  35  73  CALM    29.66R
#WANOGA BUTTE D N/A         32  32  100 W7      N/A

$$

ORZ044-210410-
LOWER COLUMBIA BASIN...OREGON

CITY            SKY/WX      TMP DP  RH  WIND    PRES   REMARKS
HERMISTON       PTCLDY      51  43  74  SW8     29.74R
#BOARDMAN SCHOOLN/A         52  43  71  S7      29.73R
#BOARDMAN 8SW   N/A         49  43  80  SW8     29.75R
#ECHO 8SW       N/A         51  42  71  SW6     29.75R
#I-84 EX 198 DOTN/A         50  42  74  NE10    N/A
#IONE SCHOOL    N/A         50  30  46  CALM    29.77R
#UMATILLA       N/A         52  41  66  S5      29.67R
$$

ORZ507-210410-
NORTHERN FOOTHILLS OF THE BLUES

CITY            SKY/WX      TMP DP  RH  WIND    PRES   REMARKS
PENDLETON AIRPT MOCLDY      51  42  71  SW6     29.75R
#ADAMS 3WNW     N/A         47  42  83  S1      29.75R
#ATHENA         N/A         49  42  77  S1      29.78R
#CAYUSE         N/A         50  42  74  S1      29.75R
#HELIX SCHOOL   N/A         46  41  83  SW7     29.75R
#HELIX 3N       N/A         45  40  82  S7      29.73R
#HOLDMAN 5SE    N/A         48  43  83  S2      29.75R
#HOLDMAN 6E     N/A         46  42  86  SE7     29.55R
#M-F GROVE ELEM N/A         53  42  66  CALM    29.73R
#M-FREEWATER 5SEN/A         52  42  69  CALM    29.76R
#PENDLETON DNTN N/A         52  37  56  CALM    29.75S
#PDT AQUATIC CTRN/A         51  40  66  CALM    29.75R
#PDT SUNRIDGE   N/A         50  42  74  CALM    29.77R
#PENDLETON 7NW  N/A         50  42  74  CALM    N/A
#PILOT ROCK 1S  N/A         47  38  71  S1      29.78R
#PILOT ROCK     N/A         47  38  71  CALM    29.79R
#TUTUILLA       N/A         49  42  77  CALM    29.80R
#UMAPINE 2E     N/A         53  45  74  CALM    29.73R
#WESTON SCHOOL  N/A         49  41  74  NW5     29.70R

$$

ORZ508-210410-
SOUTHERN FOOTHILLS OF THE BLUES

CITY            SKY/WX      TMP DP  RH  WIND    PRES   REMARKS
LEXINGTON       MOCLDY      48  41  77  SW8     29.79R
#AJAX           N/A         46  34  63  W3      29.93R
#FOSSIL SCHOOL  N/A         48  36  63  CALM    29.73R
#HEPPNER EOC    N/A         46  40  79  CALM    29.70R
#HEPPNER 4NE    N/A         44  40  86  W5      29.75R
#LEXINGTON 2SE  N/A         47  41  79  CALM    29.72R
#MIKKALO        N/A         46  40  79  W1      29.87R
#OLEX 4N        N/A         47  41  79  SW9     29.75R
#RUGGS 5NE      N/A         41  39  93  CALM    29.91S
#RUGGS 2SW      N/A         40  37  89  CALM    29.78R

$$

ORZ502-503-210410-
BLUE MOUNTAINS

CITY            SKY/WX      TMP DP  RH  WIND    PRES   REMARKS
MEACHAM         CLOUDY      38  37  96  CALM    29.76R
#BATTLE MTN DOT N/A         38  35  89  CALM    N/A
#GRANITE        N/A         37  27  67  CALM    29.71R
#GREENHORN 9SW  N/A         41  36  82  CALM    25.97R
#HEPPNER 15SE   N/A         37  35  92  CALM    29.69R
#LADD CYN SMT   N/A         41  35  79  W2      N/A
#LADD CREEK ODOTN/A         42  37  82  CALM    N/A
#LONG CREEK HS  N/A         43  37  79  CALM    N/A
#N POWDER DOT   N/A         45  35  68  CALM    N/A
#PIKES PEAK     N/A         43  38  82  N8      27.99S
#TOLLGATE       N/A         35  34  96  S2      29.64R
#TROY SCHOOL    N/A         47  44  89  CALM    29.62R
#UKIAH          N/A         39  37  92  CALM    29.67R
#WESTON 4E      N/A         43  40  89  S2      29.74R
$$

ORZ505-210410-
JOHN DAY BASIN

CITY            SKY/WX      TMP DP  RH  WIND    PRES   REMARKS
JOHN DAY        PTCLDY      47  34  60  CALM    29.76R
#JOHN DAY KJDY  N/A         51  N/A N/A CALM    28.66F
#ANTELOPE 9ESE  N/A         52  37  56  CALM    N/A
#DAYVILLE SCHOOLN/A         52  32  46  CALM    29.74R
#MITCHELL       N/A         48  36  63  CALM    29.95R
#MITCHELL 8NW   N/A         45  32  60  SW5     29.81R
#MONUMENT HS    N/A         52  35  52  CALM    29.72R
#MT. VERNON 5SE N/A         45  34  65  CALM    29.71R
#SPRAY SCHOOL   N/A         49  N/A N/A CALM    N/A
$$

ORZ506-210410-
OCHOCO AND JOHN DAY HIGHLANDS

CITY            SKY/WX      TMP DP  RH  WIND    PRES   REMARKS
#HORSE RIDGE DO N/A         41  30  65  W6      N/A
#PAULINA ODOT   N/A         45  30  55  W7      N/A
#PINE MTN OBS   N/A         32  29  89  CALM    N/A
#PRAIRIE CITY   N/A         46  36  68  CALM    29.89R
#SENECA 9NW     N/A         38  30  73  CALM    29.72R
$$

ORZ049-210410-
GRANDE RONDE VALLEY

CITY            SKY/WX      TMP DP  RH  WIND    PRES   REMARKS
LA GRANDE       LGT RAIN    43  40  89  SE3     29.78R
#COVE           N/A         45  42  89  CALM    29.82R
#COVE SCHOOL    N/A         44  39  82  CALM    29.81R
#COVE 6NW       N/A         45  39  79  CALM    29.78R
#ELGIN 3N       N/A         42  39  89  CALM    30.19R
#ELGIN 1E       N/A         43  38  82  CALM    N/A
#IMBLER SCHOOL  N/A         42  39  89  CALM    29.76R
#ISLAND CITY 4N N/A         50  49  96  CALM    29.83R
#LA GRANDE-LEFFEN/A         42  39  89  W6      30.19R
#UNION 1S       N/A         43  38  82  CALM    29.78R
$$

ORZ050-210410-
WALLOWA COUNTY

CITY            SKY/WX      TMP DP  RH  WIND    PRES   REMARKS
JOSEPH AIRPORT  CLOUDY      39  36  89  CALM    29.78R
#ENTERPRISE HS  N/A         41  35  79  CALM    29.66R
#IMNAHA SCHOOL  N/A         52  39  61  CALM    29.77R
#IMNAHA 10S     N/A         48  36  63  CALM    29.77R
#JOSEPH         N/A         41  36  82  CALM    30.00R
#JOSEPH 3N      N/A         40  31  70  CALM    29.81R
#JOSEPH 3W      N/A         34  33  96  SW2     30.15R
#LOSTINE        N/A         39  36  89  CALM    29.60R
#LOSTINE 3SE    N/A         40  36  85  CALM    29.81R
#MT HOWARD 8000 N/A         27  24  88  CALM    29.75R
#PROMISE 1S     N/A         39  36  89  CALM    29.89R
#WALLOWA LAKE   N/A         36  35  96  CALM    29.80R
#WALLOWA SCHOOL N/A         41  38  89  CALM    29.78R



$$



USA.gov is the U.S. government's official web portal to all federal, state and local government web resources and services.